DW7731 Weather Reports


time (UTC)temp
C
wind
direction
speed
KPH
gust
KPH
rain 1hr
cm
rain 24hr
cm
rain mn
cm
humidity
%
barometer
mb
20260504212104 21 182 0.0 0.0 0.00 0.00 0.00 37 1010.5
20260504211604 21 182 0.0 0.0 0.00 0.00 0.00 39 1010.2
20260504211104 20 182 0.0 0.0 0.00 0.00 0.00 38 1010.5
20260504210605 20 182 0.0 0.0 0.00 0.00 0.00 40 1010.2
20260504210104 21 182 0.0 0.0 0.00 0.00 0.00 37 1010.2
20260504205605 22 182 0.0 0.0 0.00 0.00 0.00 35 1010.2
20260504204604 22 182 0.0 0.0 0.00 0.00 0.00 35 1010.2
20260504204104 22 182 0.0 0.0 0.00 0.00 0.00 36 1010.2
20260504203105 23 182 0.0 0.0 0.00 0.00 0.00 35 1010.2
20260504202604 23 182 0.0 0.0 0.00 0.00 0.00 34 1010.2
20260504202104 23 182 0.0 0.0 0.00 0.00 0.00 30 1010.2
20260504201605 24 182 0.0 0.0 0.00 0.00 0.00 31 1010.2
20260504195104 23 182 0.0 0.0 0.00 0.00 0.00 31 1010.2
20260504194604 23 182 0.0 0.0 0.00 0.00 0.00 31 1010.4
20260504193604 23 182 0.0 0.0 0.00 0.00 0.00 32 1010.5
20260504193105 23 182 0.0 0.0 0.00 0.00 0.00 31 1010.5
20260504192105 23 182 0.0 0.0 0.00 0.00 0.00 34 1010.5
20260504191604 23 182 0.0 0.0 0.00 0.00 0.00 32 1010.5
20260504191105 22 182 0.0 0.0 0.00 0.00 0.00 34 1010.5
20260504190604 23 182 0.0 0.0 0.00 0.00 0.00 32 1010.5
20260504190105 23 182 0.0 0.0 0.00 0.00 0.00 31 1010.5
20260504185605 23 182 0.0 0.0 0.00 0.00 0.00 34 1010.5
20260504185104 23 182 0.0 0.0 0.00 0.00 0.00 34 1010.5
20260504184605 23 182 0.0 0.0 0.00 0.00 0.00 32 1010.8
20260504183604 22 182 0.0 0.0 0.00 0.00 0.00 35 1010.8
20260504183105 22 182 0.0 0.0 0.00 0.00 0.00 33 1010.8
20260504182605 22 182 0.0 0.0 0.00 0.00 0.00 34 1010.8
20260504181604 22 182 0.0 0.0 0.00 0.00 0.00 32 1011.2
20260504181104 22 182 0.0 0.0 0.00 0.00 0.00 32 1011.2
20260504180605 22 182 0.0 0.0 0.00 0.00 0.00 31 1011.2
20260504180104 22 182 0.0 0.0 0.00 0.00 0.00 33 1011.2
20260504175604 22 182 0.0 0.0 0.00 0.00 0.00 33 1011.2
20260504175104 22 182 0.0 0.0 0.00 0.00 0.00 33 1011.2
20260504174605 22 182 0.0 0.0 0.00 0.00 0.00 33 1011.2
20260504174104 22 182 0.0 0.0 0.00 0.00 0.00 34 1011.2
20260504173605 22 182 0.0 0.0 0.00 0.00 0.00 32 1011.5
20260504172105 21 182 0.0 0.0 0.00 0.00 0.00 32 1011.5
20260504171604 21 182 0.0 0.0 0.00 0.00 0.00 35 1011.5
20260504171105 21 182 0.0 0.0 0.00 0.00 0.00 33 1011.5
20260504170604 21 182 0.0 0.0 0.00 0.00 0.00 33 1011.5
20260504170105 21 182 0.0 0.0 0.00 0.00 0.00 31 1011.9
20260504160104 20 182 0.0 0.0 0.00 0.00 0.00 34 1012.2
20260504151104 19 182 0.0 0.0 0.00 0.00 0.00 38 1012.9
20260504150605 19 182 0.0 0.0 0.00 0.00 0.00 39 1012.9
20260504150104 19 182 0.0 0.0 0.00 0.00 0.00 39 1012.9
20260504141104 18 182 0.0 0.0 0.00 0.00 0.00 42 1013.2
20260504140605 17 182 0.0 0.0 0.00 0.00 0.00 41 1013.2
20260504140104 17 182 0.0 0.0 0.00 0.00 0.00 41 1013.2
20260504130605 16 182 0.0 0.0 0.00 0.00 0.00 47 1013.2
20260504130104 15 182 0.0 0.0 0.00 0.00 0.00 48 1013.2
20260504120104 11 182 0.0 0.0 0.00 0.00 0.00 58 1013.6
20260504110605 6 182 0.0 0.0 0.00 0.00 0.00 74 1013.5
20260504110104 5 182 0.0 0.0 0.00 0.00 0.00 73 1013.9
20260504100105 2 182 0.0 0.0 0.00 0.00 0.00 79 1013.2
20260504090104 3 182 0.0 0.0 0.00 0.00 0.00 74 1013.2
20260504081605 4 182 0.0 0.0 0.00 0.00 0.00 71 1013.2
20260504081104 4 182 0.0 0.0 0.00 0.00 0.00 72 1013.2
20260504080604 4 182 0.0 0.0 0.00 0.00 0.00 72 1013.2
20260504080104 4 182 0.0 0.0 0.00 0.00 0.00 72 1013.2
20260504070105 4 182 0.0 0.0 0.00 0.00 0.00 77 1013.2
20260504060105 3 182 0.0 0.0 0.00 0.00 0.00 77 1013.2
20260504050604 2 182 0.0 0.0 0.00 0.00 0.00 72 1013.2
20260504045604 2 182 0.0 0.0 0.00 0.00 0.00 73 1013.2
20260504045104 2 182 0.0 0.0 0.00 0.00 0.00 75 1013.2
20260504044605 2 182 0.0 0.0 0.00 0.00 0.00 75 1013.2
20260504043104 2 182 0.0 0.0 0.00 0.00 0.00 72 1013.2
20260504042604 2 182 0.0 0.0 0.00 0.00 0.00 71 1013.2
20260504042104 2 182 0.0 0.0 0.00 0.00 0.00 71 1013.2
20260504041604 2 182 0.0 0.0 0.00 0.00 0.00 71 1013.2
20260504041104 2 182 0.0 0.0 0.00 0.00 0.00 70 1013.2
20260504040604 3 182 0.0 0.0 0.00 0.00 0.00 69 1013.2
20260504040104 3 182 0.0 0.0 0.00 0.00 0.00 69 1013.2
20260504035604 3 182 0.0 0.0 0.00 0.00 0.00 69 1012.9
20260504035104 3 182 0.0 0.0 0.00 0.00 0.00 69 1012.9
20260504034604 3 182 0.0 0.0 0.00 0.00 0.00 69 1012.9
20260504034104 3 182 0.0 0.0 0.00 0.00 0.00 68 1012.9
20260504033104 3 182 0.0 0.0 0.00 0.00 0.00 70 1012.9
20260504032605 3 182 0.0 0.0 0.00 0.00 0.00 70 1012.9
20260504032104 3 182 0.0 0.0 0.00 0.00 0.00 71 1012.9
20260504031604 3 182 0.0 0.0 0.00 0.00 0.00 71 1012.9
20260504030604 3 182 0.0 0.0 0.00 0.00 0.00 73 1012.9
20260504025604 3 182 0.0 0.0 0.00 0.00 0.00 73 1012.9
20260504025105 3 182 0.0 0.0 0.00 0.00 0.00 72 1012.9
20260504024604 3 182 0.0 0.0 0.00 0.00 0.00 70 1012.9
20260504024104 3 182 0.0 0.0 0.00 0.00 0.00 72 1012.9
20260504023604 3 182 0.0 0.0 0.00 0.00 0.00 73 1012.5
20260504022604 3 182 0.0 0.0 0.00 0.00 0.00 74 1012.5
20260504022104 3 182 0.0 0.0 0.00 0.00 0.00 73 1012.5
20260504021604 3 182 0.0 0.0 0.00 0.00 0.00 72 1012.5
20260504021104 3 182 0.0 0.0 0.00 0.00 0.00 72 1012.5
20260504020604 3 182 0.0 0.0 0.00 0.00 0.00 71 1012.5
20260504020104 3 182 0.0 0.0 0.00 0.00 0.00 70 1012.5
20260504015604 3 182 0.0 0.0 0.00 0.00 0.00 68 1012.5
20260504015104 3 182 0.0 0.0 0.00 0.00 0.00 67 1012.2
20260504014604 3 182 0.0 0.0 0.00 0.00 0.00 65 1012.2
20260504014104 3 182 0.0 0.0 0.00 0.00 0.00 64 1012.2
20260504013604 3 182 0.0 0.0 0.00 0.00 0.00 63 1012.2
20260504013105 3 182 0.0 0.0 0.00 0.00 0.00 62 1012.2
20260504012604 3 182 0.0 0.0 0.00 0.00 0.00 61 1012.2
20260504012104 4 182 0.0 0.0 0.00 0.00 0.00 60 1012.2
20260504011604 4 182 0.0 0.0 0.00 0.00 0.00 60 1012.2
20260504005104 5 182 0.0 0.0 0.00 0.00 0.00 58 1011.9
20260504004604 5 182 0.0 0.0 0.00 0.00 0.00 56 1011.5
20260504003604 5 182 0.0 0.0 0.00 0.00 0.00 57 1011.5
20260504003104 6 182 0.0 0.0 0.00 0.00 0.00 54 1011.2
20260504002605 6 182 0.0 0.0 0.00 0.00 0.00 54 1011.2
20260504001604 6 182 0.0 0.0 0.00 0.00 0.00 55 1011.2
20260504001104 6 182 0.0 0.0 0.00 0.00 0.00 52 1011.2
20260504000604 6 182 0.0 0.0 0.00 0.00 0.00 53 1011.2
20260504000104 7 182 0.0 0.0 0.00 0.00 0.00 53 1010.8
20260503235104 7 182 0.0 0.0 0.00 0.00 0.00 53 1011.2
20260503234604 7 182 0.0 0.0 0.00 0.00 0.00 51 1010.8
20260503234104 7 182 0.0 0.0 0.00 0.00 0.00 51 1010.8
20260503233604 7 182 0.0 0.0 0.00 0.00 0.00 52 1010.8
20260503233104 7 182 0.0 0.0 0.00 0.00 0.00 51 1010.8
20260503232604 7 182 0.0 0.0 0.00 0.00 0.00 52 1010.8
20260503232104 8 182 0.0 0.0 0.00 0.00 0.00 52 1010.5
20260503231604 8 182 0.0 0.0 0.00 0.00 0.00 51 1010.5
20260503230604 8 182 0.0 0.0 0.00 0.00 0.00 50 1010.5
20260503230104 8 182 0.0 0.0 0.00 0.00 0.00 49 1010.5
20260503225604 8 182 0.0 0.0 0.00 0.00 0.00 48 1010.5
20260503225104 8 182 0.0 0.0 0.00 0.00 0.00 49 1010.5
20260503224605 8 182 0.0 0.0 0.00 0.00 0.00 49 1010.5
20260503223604 8 182 0.0 0.0 0.00 0.00 0.00 48 1010.5
20260503223104 8 182 0.0 0.0 0.00 0.00 0.00 47 1010.5
20260503222604 8 182 0.0 0.0 0.00 0.00 0.00 48 1010.5
20260503222104 9 182 0.0 0.0 0.00 0.00 0.00 46 1010.5
20260503221104 9 182 0.0 0.0 0.00 0.00 0.00 48 1010.5
20260503220604 9 182 0.0 0.0 0.00 0.00 0.00 45 1010.5
20260503220104 10 182 0.0 0.0 0.00 0.00 0.00 47 1010.5
20260503215604 10 182 0.0 0.0 0.00 0.00 0.00 45 1010.5
20260503215104 10 182 0.0 0.0 0.00 0.00 0.00 44 1010.2
20260503214604 10 182 0.0 0.0 0.00 0.00 0.00 48 1010.2
20260503214104 10 182 0.0 0.0 0.00 0.00 0.00 46 1010.2
20260503213604 10 182 0.0 0.0 0.00 0.00 0.00 46 1010.2
20260503213104 10 182 0.0 0.0 0.00 0.00 0.00 44 1010.2
20260503212604 10 182 0.0 0.0 0.00 0.00 0.00 45 1010.2